Regional Weather Roundup
Issued by NWS

Home | Current Version | Previous Version | Graphics & Text | Print | Product List | Glossary On
Versions: 1 2 3 4 5 6 7 8 9 10 11 12 13 14 15 16 17 18 19 20 21 22 23 24 25 26 27 28 29 30 31 32 33 34 35 36 37 38 39 40 41 42 43 44 45 46 47 48 49 50
000
ASUS43 KLOT 231703
RWRIL

ILLINOIS REGIONAL WEATHER ROUNDUP
NATIONAL WEATHER SERVICE CHICAGO/ROMEOVILLE IL
1100 AM CST MON JAN 23 2017

NOTE: "FAIR" INDICATES FEW OR NO CLOUDS BELOW 12,000 FEET WITH NO
SIGNIFICANT WEATHER AND/OR OBSTRUCTIONS TO VISIBILITY.

* THESE STATIONS ARE NOT UNDER NWS QUALITY CONTROL. THEY ALSO MAY NOT
  REPORT WEATHER SUCH AS PRECIPITATION OR FOG.

ILZ001-002-007-009-015-016-024-231800-
NORTHWEST ILLINOIS

CITY           SKY/WX    TMP DP  RH WIND       PRES   REMARKS
MOLINE         CLOUDY    40  34  79 W7        29.83S
STERLING*      CLOUDY    40  36  86 N8        29.82S
SAVANNA*       CLOUDY    38  35  88 NW6       29.82S WCI  34
$$

ILZ003-004-008-010-011-017-018-231800-
NORTH CENTRAL ILLINOIS

CITY           SKY/WX    TMP DP  RH WIND       PRES   REMARKS
ROCKFORD       CLOUDY    41  36  82 N7        29.81S
DE KALB*       CLOUDY    38  36  92 N7        29.79S WCI  33
$$

ILZ005-006-012>014-019>023-231800-
NORTHEAST ILLINOIS

CITY           SKY/WX    TMP DP  RH WIND       PRES   REMARKS
CHICAGO-OHARE  CLOUDY    39  35  86 N7        29.77S WCI  34
CHICAGO-MIDWAY CLOUDY    40  34  79 N13G22    29.77S
AURORA         CLOUDY    40  36  86 N10       29.79S
LANSING*       CLOUDY    38  37  92 N10       29.77F WCI  32
WAUKEGAN       CLOUDY    39  36  89 N5        29.77S
DUPAGE AIRPORT CLOUDY    39  34  82 N7        29.77F WCI  34
KANKAKEE*      CLOUDY    39  35  86 N8        29.78F WCI  34
WHEELING       CLOUDY    40  35  83 N6        29.78F
MORRIS*        CLOUDY    40  36  87 N6        29.78S
NORTHERLY ISL    N/A     39  35  86 N9          N/A  WCI  33
$$

LMZ740>746-231800-
SOUTHERN LAKE MICHIGAN

STATION/POSITION SKY/WX   TEMP    WIND        PRES    VSBY  WAVE
                          AIR SEA DIR/SP/G                  HT/PER
                          (F)     (DEG/KT/KT) (MB)    (MI)  (FT/S)
HARRISON CRIB              38     350/ 11/ 12   N/A
BURNHAM HARBOR             39     340/  7/  9   N/A
CALUMET HARBOR             38     330/  7/ 13 1007.9S
BURNS HARBOR               36     350/  9/ 11 1008.8S
MICHIGAN CITY              36     360/ 15/ 16   N/A
$$

ILZ025>027-034>036-040-047-049-050-058-095>099-231800-
WEST-CENTRAL ILLINOIS

CITY           SKY/WX    TMP DP  RH WIND       PRES   REMARKS
QUINCY         CLOUDY    39  34  82 NW9       29.87R WCI  33
MACOMB*        CLOUDY    39  36  91 NW9       29.87R WCI  32
JACKSONVILLE*  CLOUDY    40  35  81 NW10      29.83S
$$

ILZ028>032-037-038-041>044-048-051>054-059>061-231800-
CENTRAL ILLINOIS

CITY           SKY/WX    TMP DP  RH WIND       PRES   REMARKS
BLOOMINGTON    CLOUDY    39  35  86 N15       29.80S WCI  31
DECATUR        CLOUDY    39  36  89 N15G25    29.79F WCI  31
PEORIA         CLOUDY    40  36  86 NW10      29.82S
LACON*         CLOUDY    39  37  90 N8        29.81S WCI  34
LINCOLN*       CLOUDY    42  37  82 N7        29.81S
SPRINGFIELD    CLOUDY    42  36  79 N10       29.82S
TAYLORVILLE    NOT AVBL
$$

ILZ033-039-045-046-055>057-062-063-231800-
EAST-CENTRAL ILLINOIS

CITY           SKY/WX    TMP DP  RH WIND       PRES   REMARKS
CHAMPAIGN      CLOUDY    38  35  89 N14       29.77F WCI  30
MATTOON        CLOUDY    38  36  92 N20       29.77S WCI  28
$$

ILZ079-100>102-231800-
SOUTHWEST ILLINOIS

CITY           SKY/WX    TMP DP  RH WIND       PRES   REMARKS
ALTON          CLOUDY    39  34  81 NW21      29.85R WCI  29
BELLEVILLE     CLOUDY    43  36  77 NW16G22   29.83R
CAHOKIA*       CLOUDY    43  34  70 N15       29.85R
SPARTA*        CLOUDY    41  35  79 N10       29.83S
$$

ILZ064>066-069>071-074>076-080>082-084>086-088>090-092>094-231800-
SOUTH-CENTRAL ILLINOIS

CITY           SKY/WX    TMP DP  RH WIND       PRES   REMARKS
CARBONDALE     CLOUDY    42  37  82 NW16G22   29.81S
CAIRO*         CLOUDY    44  38  77 NW10      29.80S
EFFINGHAM*     CLOUDY    40  38  91 NW13      29.80F
MARION         CLOUDY    43  37  81 NW17G25   29.81R
MT. VERNON     CLOUDY    40  35  83 VRB6      29.80R
CENTRALIA*     CLOUDY    41  37  87 NW12      29.80R
SALEM*         CLOUDY    41  36  81 N15       29.79S
$$

ILZ067-068-072-073-078-083-087-091-231800-
SOUTHEAST ILLINOIS

CITY           SKY/WX    TMP DP  RH WIND       PRES   REMARKS
LAWRENCEVILLE  CLOUDY    41  38  89 NW23      29.75S
FLORA*         CLOUDY    42  37  83 N14G21    29.78F
FAIRFIELD*     CLOUDY    41  37  84 NW12      29.76F
ROBINSON*      CLOUDY    40  37  89 N13       29.77S
$$

ABBREVIATIONS USED IN REMARKS
   TC - TEMPERATURE IN CELSIUS
  WCI - WIND CHILL INDEX
   HX - HEAT INDEX
  VSB - VISIBILITY
$$




USA.gov is the U.S. government's official web portal to all federal, state and local government web resources and services.